Change the Weather History Date:

Monday, June 2, 2014

  Actual Average (EPKT) Record (EPKT)
Temperature  
Mean Temperature 52 °F -  
Max Temperature 59 °F 71 °F 77 °F (2008)
Min Temperature 45 °F 51 °F 37 °F (2006)
Degree Days  
Heating Degree Days 13    
Growing Degree Days 2 (Base 50)    
Moisture  
Dew Point 46 °F    
Average Humidity 73    
Maximum Humidity 94    
Minimum Humidity 43    
Precipitation  
Precipitation 0.00 in 0.14 in - ()
Sea Level Pressure  
Sea Level Pressure 30.02 in    
Wind  
Wind Speed 5 mph ()    
Max Wind Speed 13 mph    
Max Gust Speed -    
Visibility 9.4 miles    
Events Rain    
Averages and records for this station are not official NWS values.
T = Trace of Precipitation, MM = Missing Value Source: Averaged Metar Reports

Daily Weather History Graph

Daily Weather History Graph

Search for Another Location

Airport or City:

Trip Planner

Search our weather history database for the weather conditions in past years. The results will help you decide how hot, cold, wet, or windy it might be!

Date:

Astronomy

Jun. 02, 2014 Rise Set
Actual Time 4:44 AM CEST 8:47 PM CEST
Civil Twilight 4:01 AM CEST 9:29 PM CEST
Nautical Twilight 3:02 AM CEST 10:29 PM CEST
Astronomical Twilight 1:07 AM CEST 12:35 AM CEST
Moon 9:09 AM CEST (6/2) 11:48 PM CEST (6/2)
Length of Visible Light 17h 27m
Length of Day
16h 03m
Waxing Crescent, 20% of the Moon is Illuminated
Jun 2
Waxing Crescent
Jun 5
First Quarter
Jun 13
Full
Jun 19
Last Quarter
Jun 27
New

Hourly Weather History & Observations

Time (CEST) Temp. Windchill Dew Point Humidity Pressure Visibility Wind Dir Wind Speed Gust Speed Precip Events Conditions
12:00 AM 52 °F - 44 °F 66% 30.05 in 12 mi 4.5 mph - -   Mostly Cloudy
12:00 AM 51.8 °F - 44.6 °F 76% 30.04 in - SSW 3.5 mph - N/A   Clear
12:30 AM 50.0 °F - 44.6 °F 82% 30.04 in - South 3.5 mph - N/A   Clear
1:00 AM 51 °F - 45 °F 72% 30.05 in 12 mi SSW 4.5 mph - - Rain Light Drizzle
1:00 AM 51.8 °F - 44.6 °F 76% 30.04 in - South 3.5 mph - N/A   Clear
1:30 AM 50.0 °F - 44.6 °F 82% 30.04 in - South 3.5 mph - N/A   Clear
2:00 AM 51 °F - 45 °F 72% 30.05 in 12 mi South 6.7 mph - -   Mostly Cloudy
2:00 AM 50.0 °F - 44.6 °F 82% 30.04 in - South 3.5 mph - N/A   Clear
2:30 AM 50.0 °F - 44.6 °F 82% 30.04 in - South 3.5 mph - N/A   Clear
3:00 AM 50 °F - 44 °F 73% 30.04 in 12 mi South 4.5 mph - -   Mostly Cloudy
3:00 AM 50.0 °F - 44.6 °F 82% 30.04 in - South 3.5 mph - N/A   Clear
3:30 AM 46.4 °F 44.3 °F 42.8 °F 87% 30.01 in - SSW 4.6 mph - N/A   Clear
4:00 AM 46 °F - 44 °F 89% 30.05 in 12 mi SW 4.5 mph - -   Mostly Cloudy
4:00 AM 46.4 °F 45.2 °F 42.8 °F 87% 30.01 in - South 3.5 mph - N/A   Clear
4:30 AM 48.2 °F - 44.6 °F 87% 30.01 in 6.2 mi South 4.6 mph - N/A   Partly Cloudy
5:00 AM 48 °F - 44 °F 81% 30.04 in 12 mi SSW 4.5 mph - -   Scattered Clouds
5:00 AM 48.2 °F - 44.6 °F 87% 30.01 in - Variable 1.2 mph - N/A   Clear
5:30 AM 46.4 °F - 44.6 °F 93% 30.01 in 6.2 mi Variable 2.3 mph - N/A   Scattered Clouds
6:00 AM 50 °F - 45 °F 78% 30.04 in 12 mi 2.2 mph - -   Mostly Cloudy
6:00 AM 50.0 °F - 44.6 °F 82% 30.01 in 6.2 mi Variable 2.3 mph - N/A   Mostly Cloudy
6:30 AM 50.0 °F - 46.4 °F 87% 30.01 in 6.2 mi Variable 2.3 mph - N/A   Scattered Clouds
7:00 AM 51 °F - 47 °F 80% 30.04 in 16 mi SW 4.5 mph - -   Mostly Cloudy
7:00 AM 51.8 °F - 46.4 °F 82% 30.04 in 6.2 mi SW 3.5 mph - N/A   Mostly Cloudy
7:30 AM 51.8 °F - 48.2 °F 88% 30.04 in 6.2 mi SW 3.5 mph - N/A   Overcast
8:00 AM 52 °F - 49 °F 85% 30.05 in 16 mi SW 4.5 mph - -   Overcast
8:00 AM 51.8 °F - 48.2 °F 88% 30.04 in 6.2 mi SW 2.3 mph - N/A   Overcast
8:30 AM 53.6 °F - 48.2 °F 82% 30.04 in 6.2 mi Variable 2.3 mph - N/A   Overcast
9:00 AM 55 °F - 47 °F 68% 30.04 in 16 mi 2.2 mph - -   Overcast
9:00 AM 55.4 °F - 48.2 °F 77% 30.04 in 6.2 mi Variable 2.3 mph - N/A   Mostly Cloudy
9:30 AM 55.4 °F - 48.2 °F 77% 30.01 in 6.2 mi South 3.5 mph - N/A   Scattered Clouds
10:00 AM 56 °F - 48 °F 68% 30.03 in 16 mi 2.2 mph - -   Overcast
10:00 AM 57.2 °F - 48.2 °F 72% 30.01 in 6.2 mi Variable 2.3 mph - N/A   Mostly Cloudy
10:30 AM 57.2 °F - 48.2 °F 72% 30.01 in 6.2 mi Variable 2.3 mph - N/A   Mostly Cloudy
11:00 AM 58 °F - 50 °F 66% 30.03 in 19 mi NNW 6.7 mph - -   Mostly Cloudy
11:00 AM 57.2 °F - 50.0 °F 77% 30.01 in 6.2 mi NW 3.5 mph - N/A   Mostly Cloudy
11:30 AM 57.2 °F - 46.4 °F 67% 30.04 in 6.2 mi North 9.2 mph - N/A   Mostly Cloudy
12:00 PM 58 °F - 46 °F 54% 30.03 in 19 mi NNW 11.2 mph - -   Mostly Cloudy
12:00 PM 59.0 °F - 48.2 °F 67% 30.04 in 6.2 mi North 12.7 mph - N/A   Mostly Cloudy
12:30 PM 59.0 °F - 46.4 °F 63% 30.04 in 6.2 mi North 8.1 mph - N/A   Mostly Cloudy
1:00 PM 60 °F - 44 °F 43% 30.03 in 16 mi NNW 11.2 mph - -   Overcast
1:00 PM 59.0 °F - 44.6 °F 59% 30.01 in 6.2 mi North 11.5 mph - N/A   Scattered Clouds
1:30 PM 59.0 °F - 44.6 °F 59% 30.01 in 6.2 mi North 10.4 mph - N/A   Scattered Clouds
2:00 PM 60 °F - 46 °F 49% 30.02 in 16 mi NNW 13.4 mph - -   Overcast
2:00 PM 59.0 °F - 44.6 °F 59% 30.01 in 6.2 mi NNW 12.7 mph - N/A   Scattered Clouds
2:30 PM 59.0 °F - 42.8 °F 55% 30.01 in 6.2 mi North 12.7 mph - N/A   Scattered Clouds
3:00 PM 57 °F - 45 °F 54% 30.02 in 16 mi NNW 8.9 mph - -   Overcast
3:00 PM 57.2 °F - 44.6 °F 63% 30.01 in 6.2 mi North 11.5 mph - N/A Rain Light Rain
3:30 PM 59.0 °F - 42.8 °F 55% 30.01 in 6.2 mi North 8.1 mph - N/A   Scattered Clouds
4:00 PM 58 °F - 44 °F 50% 30.01 in 16 mi North 8.9 mph - - Rain Light Rain
4:00 PM 59.0 °F - 46.4 °F 63% 30.01 in 6.2 mi North 9.2 mph - N/A Rain Light Rain
4:30 PM 55.4 °F - 48.2 °F 77% 30.01 in 6.2 mi NNE 12.7 mph - N/A Rain Light Rain
5:00 PM 56 °F - 46 °F 59% 30.03 in 16 mi North 8.9 mph - - Rain Light Rain
5:00 PM 55.4 °F - 46.4 °F 72% 30.01 in 6.2 mi North 6.9 mph - N/A   Partly Cloudy
5:30 PM 55.4 °F - 46.4 °F 72% 30.01 in 6.2 mi North 9.2 mph - N/A   Partly Cloudy
6:00 PM 55 °F - 43 °F 55% 30.03 in 16 mi North 11.2 mph - -   Overcast
6:00 PM 55.4 °F - 44.6 °F 67% 30.01 in 6.2 mi NNE 8.1 mph - N/A   Partly Cloudy
6:30 PM 55.4 °F - 42.8 °F 63% 30.01 in 6.2 mi North 9.2 mph - N/A   Mostly Cloudy
7:00 PM 54 °F - 43 °F 57% 30.03 in 16 mi North 6.7 mph - -   Overcast
7:00 PM 53.6 °F - 42.8 °F 67% 30.01 in 6.2 mi NNW 4.6 mph - N/A   Mostly Cloudy
7:30 PM 53.6 °F - 44.6 °F 72% 30.01 in 6.2 mi NNW 3.5 mph - N/A Rain Light Rain
8:00 PM 53 °F - 45 °F 66% 30.04 in 16 mi NNW 4.5 mph - - Rain Light Rain
8:00 PM 53.6 °F - 44.6 °F 72% 30.01 in 6.2 mi North 6.9 mph - N/A Rain Light Rain
8:30 PM 51.8 °F - 44.6 °F 76% 30.01 in 6.2 mi NNW 4.6 mph - N/A Rain Light Rain
9:00 PM 51 °F - 46 °F 76% 30.04 in 12 mi North 2.2 mph - - Rain Light Rain
9:00 PM 51.8 °F - 46.4 °F 82% 30.01 in 6.2 mi NE 3.5 mph - N/A Rain Light Rain
9:30 PM 51.8 °F - 46.4 °F 82% 30.01 in 6.2 mi Variable 1.2 mph - N/A   Overcast
10:00 PM 51 °F - 45 °F 74% 30.04 in 12 mi 2.2 mph - - Rain Light Rain
10:00 PM 51.8 °F - 46.4 °F 82% 30.01 in 6.2 mi NNW 3.5 mph - N/A   Overcast
10:30 PM 51.8 °F - 46.4 °F 82% 30.01 in 6.2 mi NNE 3.5 mph - N/A Rain Light Rain
11:00 PM 50 °F - 47 °F 84% 30.03 in 9 mi NE 2.2 mph - - Rain Rain
11:00 PM 50.0 °F - 46.4 °F 87% 30.01 in 6.2 mi NE 3.5 mph - N/A Rain Rain
11:30 PM 50.0 °F - 48.2 °F 94% 30.01 in 6.2 mi Variable 1.2 mph - N/A Rain Light Rain